Stations météo

Publicité
Tours, France (7240): Température de l'air & dewpoint: 02.04.2020 03:00:00 - 08.04.2020 03:00:00 (CEST)Tours, France (7240): Température de l'air 5cm: 02.04.2020 03:00:00 - 08.04.2020 03:00:00 (CEST)Tours, France (7240): Température de l'air -20cm & Température de l'air -100cm: 02.04.2020 03:00:00 - 08.04.2020 03:00:00 (CEST)Tours, France (7240): Vitesse du vent & gusts: 02.04.2020 03:00:00 - 08.04.2020 03:00:00 (CEST)Tours, France (7240): Direction du vent: 02.04.2020 03:00:00 - 08.04.2020 03:00:00 (CEST)Tours, France (7240): reduced air pressure: 02.04.2020 03:00:00 - 08.04.2020 03:00:00 (CEST)Tours, France (7240): visibility: 02.04.2020 03:00:00 - 08.04.2020 03:00:00 (CEST)Tours, France (7240): Ensoleillement: 02.04.2020 03:00:00 - 08.04.2020 03:00:00 (CEST)Tours, France (7240): Quantités de précipitations: 02.04.2020 03:00:00 - 08.04.2020 03:00:00 (CEST)
Date & Time tt [°C] td [°C] tt 5cm [°C] tt -20cm [°C] tt -100cm [°C] ff [km/h] ff [knt] fx [km/h] fx [knt] dd ppp [hPa] vv [km] sd [min] rr [mm]
08.04.2020 03:00:00 13,6 10,6 11,5 12,9 10,7 9 5 15 8 ENE 1023,4 19 0 0,0
08.04.2020 02:00:00 16,1 10,0 12,2 12,9 10,7 5 3 16 9 NNE 1023,6 25 0 0,0
08.04.2020 01:00:00 15,0 11,0 12,3 12,9 10,7 5 3 19 10 WNW 1024,3 20 0 0,0
08.04.2020 00:00:00 16,0 11,0 12,6 12,9 10,7 6 3 11 6 N 1024,1 19 0 0,0
07.04.2020 23:00:00 15,9 10,6 12,5 12,8 10,7 6 4 13 7 NW 1024,1 26 0 0,0
07.04.2020 22:00:00 17,3 9,7 12,6 12,8 10,7 4 2 10 5 NNW 1024,0 33 0 0,0
07.04.2020 21:00:00 18,2 9,3 14,5 12,7 10,7 5 3 11 6 N 1023,6 38 0 0,0
07.04.2020 20:00:00 19,3 9,5 16,5 12,6 10,7 5 3 8 5 NNW 1023,3 36 0 0,0
07.04.2020 19:00:00 20,2 10,0 19,3 12,4 10,7 3 2 7 4 WNW 1023,2 43 0 0,0
07.04.2020 18:00:00 20,8 7,4 21,0 12,2 10,7 8 4 18 10 SE 1023,2 40 0 0,0
07.04.2020 17:00:00 20,8 8,8 21,8 12,0 10,7 13 7 29 16 SE 1023,7 40 7 0,0
07.04.2020 16:00:00 20,2 9,4 22,1 11,8 10,7 17 9 28 15 E 1023,9 42 36 0,0
07.04.2020 15:00:00 19,7 10,1 24,2 11,6 10,6 14 8 31 17 E 1024,6 20 60 0,0
07.04.2020 14:00:00 19,1 12,8 23,8 11,5 10,6 12 6 29 15 ENE 1025,1 18 60 0,0
07.04.2020 13:00:00 18,0 12,0 22,0 11,4 10,6 14 7 25 13 E 1025,9 14 60 0,0
07.04.2020 12:00:00 16,0 12,0 18,8 11,4 10,6 14 8 24 13 ENE 1026,6 13 58 0,0
07.04.2020 11:00:00 14,6 12,1 13,5 11,4 10,6 14 7 24 13 E 1027,0 13 52 0,0
07.04.2020 10:00:00 11,8 11,0 10,9 11,4 10,6 16 8 29 16 E 1027,2 7 0 0,0
07.04.2020 09:00:00 10,3 10,1 9,8 11,4 10,6 15 8 26 14 E 1027,3 4,4 0 0,0
07.04.2020 08:00:00 9,7 9,7 9,7 11,5 10,6 14 8 24 13 ENE 1027,1 1,7 0 0,0
07.04.2020 07:00:00 10,0 9,8 9,8 11,5 10,6 14 7 25 14 ENE 1026,8 2,0 0 0,0
07.04.2020 06:00:00 10,3 10,1 9,2 11,5 10,6 9 5 14 8 E 1026,9 2,9 0 0,0
07.04.2020 05:00:00 10,2 9,9 8,8 11,5 10,6 6 4 13 7 ENE 1027,0 3,8 0 0,0
07.04.2020 04:00:00 10,4 10,1 8,9 11,5 10,6 6 3 11 6 NE 1027,3 3,4 0 0,0
07.04.2020 03:00:00 10,9 10,6 10,6 11,5 10,6 5 3 9 5 E 1027,5 4,1 0 0,0
07.04.2020 02:00:00 11,0 10,8 10,7 11,5 10,6 6 4 13 7 ESE 1027,3 3,6 0 0,0
07.04.2020 01:00:00 10,9 10,7 10,3 11,5 10,6 7 4 11 6 ESE 1026,7 3,3 0 0,0
07.04.2020 00:00:00 11,0 10,7 9,8 11,5 10,6 5 3 10 6 N 1025,9 3,9 0 0,0
06.04.2020 23:00:00 10,8 10,5 9,7 11,5 10,5 2 1 7 4 E 1025,9 5 0 0,2
06.04.2020 22:00:00 11,1 10,6 10,1 11,5 10,5 3 2 7 4 SSE 1025,8 3,7 0 0,0
06.04.2020 21:00:00 11,4 10,8 10,9 11,4 10,5 6 4 12 6 SE 1025,0 7 0 0,0
06.04.2020 20:00:00 11,7 10,9 11,7 11,4 10,5 6 4 13 7 SE 1024,3 11 0 0,0
06.04.2020 19:00:00 11,7 10,8 12,2 11,3 10,5 9 5 13 7 SSE 1024,1 7 0 0,0
06.04.2020 18:00:00 11,8 10,9 12,6 11,3 10,5 7 4 13 7 SSE 1023,7 11 0 0,4
06.04.2020 17:00:00 11,6 10,7 11,6 11,2 10,5 4 2 15 8 SSW 1023,6 3,5 0 0,2
06.04.2020 16:00:00 11,3 10,2 12,2 11,2 10,5 8 5 17 9 SW 1023,6 14 0 0,0
06.04.2020 15:00:00 11,0 10,4 11,6 11,2 10,5 11 6 21 12 S 1023,1 3,8 0 0,8
06.04.2020 14:00:00 10,3 9,7 10,0 11,1 10,4 13 7 27 14 SSW 1022,8 3,1 0 0,6
06.04.2020 13:00:00 9,2 8,4 9,8 11,2 10,5 19 10 33 18 S 1022,4 3,4 0 0,4
06.04.2020 12:00:00 9,7 8,3 8,8 11,3 10,5 18 10 31 17 S 1021,9 16 0 0,4
06.04.2020 11:00:00 8,9 7,8 8,4 11,3 10,4 14 8 31 17 S 1021,4 8 0 0,8
06.04.2020 10:00:00 9,0 7,1 8,1 11,3 10,4 16 9 41 22 SSW 1020,3 11 0 1,2
06.04.2020 09:00:00 13,0 1,0 10,9 11,4 10,4 11 6 24 13 SW 1018,7 60 0 0,0
06.04.2020 08:00:00 13,1 0,8 10,9 11,4 10,4 16 9 29 16 SW 1017,5 49 0 0,0
06.04.2020 07:00:00 13,3 -0,4 11,8 11,4 10,4 18 10 30 16 S 1016,5 60 0 0,0
06.04.2020 06:00:00 13,4 -0,3 11,9 11,5 10,4 16 9 35 19 S 1016,0 46 0 0,0
06.04.2020 05:00:00 13,7 0,0 12,4 11,5 10,4 25 13 45 24 S 1015,7 60 0 0,0
06.04.2020 04:00:00 13,7 0,0 11,6 11,6 10,4 19 10 30 16 S 1015,7 59 0 0,0
06.04.2020 03:00:00 13,3 0,3 10,8 11,6 10,4 16 9 30 16 S 1015,5 60 0 0,0
06.04.2020 02:00:00 14,3 0,5 12,0 11,7 10,4 19 11 36 19 S 1015,3 60 0 0,0
06.04.2020 01:00:00 15,4 0,8 12,0 11,7 10,4 18 10 36 19 S 1014,9 60 0 0,0
06.04.2020 00:00:00 15,0 1,8 8,4 11,7 10,4 16 8 26 14 S 1014,6 60 0 0,0
05.04.2020 23:00:00 14,4 1,6 4,1 11,7 10,4 11 6 16 8 SSE 1014,2 60 0 0,0
05.04.2020 22:00:00 14,4 2,3 4,0 11,6 10,4 7 4 13 7 SE 1013,9 60 0 0,0
05.04.2020 21:00:00 16,6 2,2 9,8 11,5 10,4 9 5 20 11 SSE 1013,2 60 10 0,0
05.04.2020 20:00:00 20,2 2,1 17,9 11,4 10,4 11 6 26 14 SSE 1012,8 52 60 0,0
05.04.2020 19:00:00 21,7 2,4 22,9 11,2 10,4 16 9 29 16 SSE 1013,0 34 60 0,0
05.04.2020 18:00:00 22,4 3,0 25,7 10,9 10,3 13 7 31 17 S 1013,0 20 60 0,0
05.04.2020 17:00:00 22,5 3,6 27,4 10,7 10,3 18 10 34 18 SSE 1013,4 35 60 0,0
05.04.2020 16:00:00 22,3 3,9 27,5 10,5 10,3 16 8 37 20 S 1013,8 31 60 0,0
05.04.2020 15:00:00 21,6 5,1 26,9 10,4 10,3 16 9 32 18 SE 1014,3 31 60 0,0
05.04.2020 14:00:00 20,0 4,5 24,9 10,3 10,3 17 9 32 18 SE 1015,0 29 60 0,0
05.04.2020 13:00:00 18,9 4,3 22,7 10,2 10,3 16 8 31 17 S 1015,6 20 60 0,0
05.04.2020 12:00:00 17,3 3,2 19,2 10,3 10,3 15 8 29 16 SSE 1016,3 24 60 0,0
05.04.2020 11:00:00 15,2 1,7 15,4 10,3 10,3 18 10 28 15 S 1016,7 20 60 0,0
05.04.2020 10:00:00 12,0 2,4 11,8 10,4 10,3 14 8 23 12 SSE 1017,1 27 60 0,0
05.04.2020 09:00:00 10,0 2,3 2,6 10,5 10,3 13 7 19 10 SE 1017,1 27 60 0,0
05.04.2020 08:00:00 7,0 1,7 -1,1 10,6 10,3 10 5 15 8 SE 1017,0 38 10 0,0
05.04.2020 07:00:00 5,0 1,7 -0,6 10,6 10,3 10 5 14 7 ESE 1016,7 36 0 0,0
05.04.2020 06:00:00 5,4 1,5 0,3 10,7 10,3 7 4 18 10 SE 1016,6 43 0 0,0
05.04.2020 05:00:00 6,7 1,8 0,6 10,8 10,3 12 6 16 9 SE 1016,5 43 0 0,0
05.04.2020 04:00:00 5,0 1,7 1,2 10,9 10,3 10 5 18 10 ESE 1016,8 52 0 0,0
05.04.2020 03:00:00 6,0 2,5 1,3 11,0 10,3 15 8 18 10 E 1016,9 56 0 0,0
05.04.2020 02:00:00 5,5 2,1 1,4 11,0 10,2 13 7 16 8 ENE 1017,6 60 0 0,0
05.04.2020 01:00:00 6,6 2,3 1,9 11,1 10,3 11 6 13 7 ENE 1017,9 60 0 0,0
05.04.2020 00:00:00 6,5 2,6 2,5 11,1 10,3 11 6 14 8 E 1017,8 60 0 0,0
04.04.2020 23:00:00 10,2 2,5 4,3 11,1 10,2 9 5 16 9 ESE 1017,6 59 0 0,0
04.04.2020 22:00:00 10,9 1,9 5,6 11,0 10,2 10 6 15 8 ESE 1017,7 59 0 0,0
04.04.2020 21:00:00 12,3 2,2 6,8 11,0 10,3 10 6 20 11 ESE 1017,5 60 8 0,0
04.04.2020 20:00:00 15,4 2,9 13,4 10,9 10,3 13 7 32 17 ESE 1017,1 58 60 0,0
04.04.2020 19:00:00 16,9 2,1 17,5 10,7 10,2 19 10 39 21 ESE 1017,1 36 60 0,0
04.04.2020 18:00:00 17,7 2,4 21,3 10,5 10,2 18 10 39 21 ESE 1017,3 35 60 0,0
04.04.2020 17:00:00 17,6 2,7 21,8 10,3 10,2 19 11 34 19 ESE 1017,7 29 60 0,0
04.04.2020 16:00:00 17,4 3,3 22,9 10,1 10,2 20 11 41 22 SE 1018,4 21 60 0,0
04.04.2020 15:00:00 16,8 3,1 20,8 10,0 10,2 22 12 40 22 ESE 1019,1 20 60 0,0
04.04.2020 14:00:00 16,5 3,9 20,7 9,9 10,2 19 10 40 22 ESE 1019,5 20 60 0,0
04.04.2020 13:00:00 15,7 1,8 19,6 9,8 10,2 22 12 37 20 SE 1020,1 19 60 0,0
04.04.2020 12:00:00 14,8 3,6 18,6 9,8 10,2 21 11 35 19 ESE 1020,6 20 60 0,0
04.04.2020 11:00:00 13,1 5,7 13,7 9,9 10,2 14 7 22 12 ESE 1020,9 20 60 0,0
04.04.2020 10:00:00 10,0 5,8 9,1 10,0 10,2 10 5 21 11 E 1021,0 19 60 0,0
04.04.2020 09:00:00 7,5 5,3 3,5 10,1 10,2 13 7 19 10 E 1021,1 18 60 0,0
04.04.2020 08:00:00 4,9 4,0 0,1 10,1 10,2 11 6 16 9 ENE 1021,0 18 8 0,0
04.04.2020 07:00:00 3,6 2,4 0,4 10,2 10,2 8 4 17 9 E 1020,7 19 0 0,0
04.04.2020 06:00:00 4,3 3,6 -0,4 10,3 10,2 11 6 14 8 ENE 1020,5 20 0 0,0
04.04.2020 05:00:00 6,2 4,2 -1,3 10,3 10,2 5 3 9 5 NE 1020,5 19 0 0,0
04.04.2020 04:00:00 6,5 3,8 0,0 10,4 10,2 4 2 10 6 NE 1020,5 26 0 0,0
04.04.2020 03:00:00 7,4 4,2 2,3 10,4 10,2 6 3 14 8 NNE 1020,7 33 0 0,0
04.04.2020 02:00:00 8,4 5,3 5,0 10,4 10,2 8 4 11 6 NE 1020,7 34 0 0,0
04.04.2020 01:00:00 9,7 6,0 7,3 10,4 10,2 6 3 11 6 ENE 1020,6 35 0 0,0
04.04.2020 00:00:00 10,6 6,0 8,9 10,4 10,2 7 4 12 6 NE 1020,4 42 0 0,0
03.04.2020 23:00:00 11,8 5,0 9,0 10,3 10,1 5 3 10 5 NNE 1020,2 47 0 0,0
03.04.2020 22:00:00 12,1 4,6 8,5 10,3 10,2 5 3 9 5 NNE 1020,2 54 0 0,0
03.04.2020 21:00:00 12,1 4,6 8,7 10,2 10,2 4 2 8 4 NNE 1019,7 60 0 0,0
03.04.2020 20:00:00 13,2 4,3 11,9 10,0 10,1 5 3 16 9 NNW 1019,6 55 0 0,0
03.04.2020 19:00:00 13,6 4,2 13,3 9,9 10,1 10 5 19 10 NW 1019,4 60 4 0,0
03.04.2020 18:00:00 15,0 3,2 13,8 9,8 10,2 8 5 21 12 N 1019,3 56 9 0,0
03.04.2020 17:00:00 14,3 2,8 15,5 9,6 10,2 8 4 21 11 WNW 1019,2 60 15 0,0
03.04.2020 16:00:00 14,3 4,8 16,0 9,5 10,1 9 5 19 11 SW 1019,4 45 22 0,0
03.04.2020 15:00:00 14,3 5,1 16,5 9,3 10,2 4 2 21 11 NNW 1019,7 51 21 0,0
03.04.2020 14:00:00 13,2 6,5 15,7 9,2 10,1 7 4 18 10 W 1020,1 20 39 0,0
03.04.2020 13:00:00 11,7 6,6 14,1 9,2 10,2 5 3 13 7 SW 1020,5 19 4 0,0
03.04.2020 12:00:00 10,3 7,0 11,4 9,2 10,2 7 4 16 8 W 1020,5 18 0 0,0
03.04.2020 11:00:00 8,5 6,3 8,8 9,2 10,2 8 5 14 7 WNW 1020,3 16 0 0,0
03.04.2020 10:00:00 6,8 5,6 6,2 9,3 10,1 5 3 8 4 W 1019,8 15 0 0,0
03.04.2020 09:00:00 5,8 5,1 5,0 9,3 10,2 5 3 10 6 W 1019,5 12 0 0,0
03.04.2020 08:00:00 5,2 4,5 4,6 9,4 10,1 5 3 12 7 WNW 1019,2 13 0 0,0
03.04.2020 07:00:00 4,9 4,2 4,3 9,4 10,2 9 5 13 7 WNW 1018,8 15 0 0,0
03.04.2020 06:00:00 4,7 3,8 3,0 9,5 10,2 10 5 15 8 WNW 1018,5 18 0 0,0
03.04.2020 05:00:00 3,8 2,6 2,4 9,6 10,1 7 4 12 7 W 1018,3 19 0 0,0
03.04.2020 04:00:00 4,4 2,4 -1,6 9,6 10,1 6 4 13 7 WNW 1018,5 20 0 0,0
03.04.2020 03:00:00 3,2 1,2 -1,3 9,7 10,2 5 3 11 6 W 1018,4 20 0 0,0
03.04.2020 02:00:00 4,6 0,9 -0,3 9,7 10,2 6 4 11 6 WNW 1018,7 20 0 0,0
03.04.2020 01:00:00 5,5 0,5 0,1 9,8 10,2 5 3 7 4 W 1018,6 20 0 0,0
03.04.2020 00:00:00 5,3 1,2 0,5 9,8 10,2 4 2 7 4 W 1018,5 20 0 0,0
02.04.2020 23:00:00 5,6 0,4 1,8 9,8 10,1 5 3 12 6 WNW 1018,4 20 0 0,0
02.04.2020 22:00:00 6,7 -0,3 1,1 9,8 10,2 6 4 15 8 N 1018,1 37 0 0,0
02.04.2020 21:00:00 7,8 -0,2 5,1 9,8 10,2 9 5 27 14 NNW 1017,7 36 5 0,0
02.04.2020 20:00:00 9,3 -0,6 8,2 9,6 10,2 16 9 35 19 NNW 1017,1 35 60 0,0
02.04.2020 19:00:00 10,9 -0,9 12,5 9,5 10,2 17 9 31 17 NNW 1016,5 26 60 0,0
02.04.2020 18:00:00 11,7 -0,5 12,0 9,3 10,1 16 8 29 15 NW 1016,2 24 42 0,0
02.04.2020 17:00:00 12,3 -0,6 17,8 9,1 10,2 17 9 30 16 NW 1016,3 38 58 0,0
02.04.2020 16:00:00 11,9 -1,0 18,1 8,9 10,2 15 8 29 16 NNW 1016,5 35 60 0,0
02.04.2020 15:00:00 11,7 -1,8 17,8 8,8 10,2 13 7 27 15 N 1016,6 37 60 0,0
02.04.2020 14:00:00 11,4 -0,1 18,2 8,7 10,2 9 5 25 13 N 1016,9 19 58 0,0
02.04.2020 13:00:00 10,3 0,3 16,3 8,7 10,2 10 5 31 17 NNE 1017,6 19 60 0,0
02.04.2020 12:00:00 9,4 1,3 13,2 8,7 10,2 11 6 25 13 NE 1017,8 15 60 0,0
02.04.2020 11:00:00 7,6 0,6 9,4 8,8 10,2 11 6 23 12 NNE 1017,9 14 60 0,0
02.04.2020 10:00:00 5,2 -0,2 6,4 8,8 10,2 10 5 26 14 NNE 1017,7 14 60 0,0
02.04.2020 09:00:00 3,8 -0,2 -0,8 8,9 10,2 9 5 18 10 NE 1017,5 14 60 0,0
02.04.2020 08:00:00 1,9 -1,5 -3,3 9,0 10,2 8 4 14 8 NNE 1017,4 13 4 0,0
02.04.2020 07:00:00 1,7 -2,3 -3,0 9,1 10,2 2 1 16 8 N 1017,0 14 0 0,0
02.04.2020 06:00:00 2,3 -2,2 -1,2 9,2 10,2 6 3 18 10 NNE 1016,7 15 0 0,0
02.04.2020 05:00:00 2,6 -3,3 -1,6 9,3 10,2 4 2 23 12 N 1017,0 18 0 0,0
02.04.2020 04:00:00 3,9 -3,6 0,4 9,3 10,2 10 5 19 10 NNE 1017,0 20 0 0,0
02.04.2020 03:00:00 4,6 -3,4 2,3 9,4 10,2 10 5 29 15 NNE 1017,2 22 0 0,0

tt = Température de l'air
td = dewpoint
tt 5cm = Température de l'air 5cm
tt -20cm = Température de l'air -20cm
tt -100cm = Température de l'air -100cm
ff = Vitesse du vent
fx = gusts
dd = Direction du vent
ppp = reduced air pressure
vv = visibility
sd = Ensoleillement
rr = Quantités de précipitations

stations d'obs. à proximité